Warning: Javascript must be enabled to use all the features on this page!


Page Loading - Please Wait...

Click to hideNews Bulletins

Peak Streamflow for the Nation

USGS 10311200 ASH CYN CK NR CARSON CITY, NV

Carson City, Nevada
Hydrologic Unit Code 16050201
Latitude  39°10'35", Longitude 119°48'17" NAD27
Drainage area 5.2  square miles
Gage datum 5,080 feet above NGVD29
Output formats
Table
Graph
Tab-separated file
peakfq (watstore) format
Reselect output format
Water
Year
Date Gage
Height
(feet)
Stream-
flow
(cfs)
1977 1976-10-01 1.47 7.10
1978 1978-05-14 1.45 6.50
1979 1979-01-11 3.46 26.0
1980 1980-01-11 3.85 33.0
1981 1981-02-14 1.18 5.50
1982 1982-04-11 3.04 22.0
1983 1983-05-28 3.61 27.0
1984 1983-11-24 2.94 21.0
1985 1985-04-14 1.49 8.40
1986 1986-02-17   58.02
1987 1987-02-13 1.85 9.80
1988 1988-04-14 1.852 3.40
1989 1988-11-23 1.82 9.50
1990 1990-05-30 0.86 3.00
1991 1991-03-04 1.972 11.0
1992 1991-10-26 1.63 7.30
1993 1993-03-17 2.14 11.0
1994 1993-10-05 1.21 4.60
1995 1995-05-01 2.57 17.0
1996 1996-05-16 4.393 39.0
1997 1997-01-02 4.95 330
1998 1998-03-24 4.39 61.0
1999 1999-02-07 4.13 31.0
2000 2000-02-14 4.16 34.0
2001 2000-10-31 3.80 7.20
2002 2001-11-24 3.95 16.0
2003 2002-11-08 3.94 15.0
2004 2004-02-16 3.86 10.0
2005 2005-05-20 3.99 19.0
2006 2005-12-31 5.48 86.0
2007 2007-02-10 4.14 14.0
2008 2008-01-04 4.10 11.0
2009 2009-03-02 4.09 12.0
2010 2010-06-06 4.05 6.60
2011 2011-06-07 4.602 27.0
2012 2012-01-21 4.60 27.0
2013 2012-12-02 4.37 20.0
2014 2014-02-09 4.232 17.0
2015 2015-02-09 4.32 12.0
2016 2016-01-30 4.81 17.0
2017 2017-01-08 5.94 67.4
2018 2017-11-16 4.91 21.1
2019 2019-02-14 4.72 14.8
2020 2020-04-28 4.322 5.50
2021 2020-11-18   4.00
?
  Peak Gage-Height Qualification Codes.
?
  Peak Streamflow Qualification Codes.